Newport Airport, OR

9:00 AM PDT on May 26, 2017 (GMT -0700)
Newport Municipal

Weather History for KONP - April, 2013

Change the Weather History Date:

Monday, April 1, 2013

  Actual Average Record
Temperature  
Mean Temperature 50 °F -  
Max Temperature 51 °F 51 °F 55 °F (2002)
Min Temperature 48 °F 39 °F 28 °F (2008)
Degree Days  
Heating Degree Days 16    
Moisture  
Dew Point 50 °F    
Average Humidity 99    
Maximum Humidity 100    
Minimum Humidity 93    
Precipitation  
Precipitation 0.01 in - - ()
Sea Level Pressure  
Sea Level Pressure 30.17 in    
Wind  
Wind Speed 7 mph (SSW)    
Max Wind Speed 12 mph    
Max Gust Speed -    
Visibility 2 miles    
Events Fog , Rain    
Averages and records for this station are not official NWS values.
T = Trace of Precipitation, MM = Missing Value Source: NWS Daily Summary

Daily Weather History Graph

Daily Weather History Graph

Search for Another Location

Airport or City:

Trip Planner

Search our weather history database for the weather conditions in past years. The results will help you decide how hot, cold, wet, or windy it might be!

Date:

Astronomy

Apr. 01, 2013 Rise Set
Actual Time 6:56 AM PDT 7:44 PM PDT
Civil Twilight 6:27 AM PDT 8:13 PM PDT
Nautical Twilight 5:52 AM PDT 8:48 PM PDT
Astronomical Twilight 5:15 AM PDT 9:25 PM PDT
Moon 1:08 AM PDT (4/1) 10:38 AM PDT (4/1)
Length of Visible Light 13h 46m
Length of Day
12h 47m
Waning Gibbous, 66% of the Moon is Illuminated
Apr 1
Waning Gibbous
Apr 2
Last Quarter
Apr 10
New
Apr 18
First Quarter
Apr 25
Full

Hourly Weather History & Observations

Time (PDT) Temp. Dew Point Humidity Pressure Visibility Wind Dir Wind Speed Gust Speed Precip Events Conditions
12:15 AM 50.0 °F 50.0 °F 100% 30.08 in 2.5 mi SSW 6.9 mph - N/A   Overcast
12:35 AM 50.0 °F 50.0 °F 100% 30.08 in 3.0 mi SSW 8.1 mph - N/A   Overcast
12:55 AM 50.0 °F 50.0 °F 100% 30.08 in 2.0 mi SSW 5.8 mph - N/A   Overcast
1:15 AM 50.0 °F 50.0 °F 100% 30.08 in 2.0 mi SSW 4.6 mph - N/A   Overcast
1:35 AM 50.0 °F 50.0 °F 100% 30.08 in 3.0 mi SSW 4.6 mph - N/A   Overcast
1:55 AM 50.0 °F 50.0 °F 100% 30.08 in 2.0 mi SSW 5.8 mph - N/A   Overcast
2:15 AM 50.0 °F 50.0 °F 100% 30.08 in 2.0 mi SSW 5.8 mph - N/A   Overcast
2:35 AM 50.0 °F 50.0 °F 100% 30.08 in 1.2 mi SSW 4.6 mph - N/A   Overcast
2:55 AM 50.0 °F 50.0 °F 100% 30.08 in 0.8 mi SSW 5.8 mph - N/A   Overcast
3:15 AM 50.0 °F 50.0 °F 100% 30.08 in 0.5 mi SSW 6.9 mph - N/A Fog Fog
3:35 AM 50.0 °F 50.0 °F 100% 30.09 in 0.8 mi SW 5.8 mph - N/A Rain Light Rain
3:55 AM 50.0 °F 50.0 °F 100% 30.09 in 0.5 mi SW 5.8 mph - N/A Fog Fog
4:15 AM 50.0 °F 50.0 °F 100% 30.09 in 0.5 mi SW 6.9 mph - N/A Fog Fog
4:35 AM 50.0 °F 50.0 °F 100% 30.09 in 0.5 mi SSW 5.8 mph - N/A Fog Fog
4:55 AM 50.0 °F 50.0 °F 100% 30.10 in 0.8 mi SSW 5.8 mph - N/A Rain Rain
5:15 AM 50.0 °F 50.0 °F 100% 30.10 in 0.8 mi SSW 5.8 mph - N/A   Light Drizzle
5:35 AM 50.0 °F 50.0 °F 100% 30.10 in 0.8 mi SSW 6.9 mph - N/A   Light Drizzle
5:55 AM 50.0 °F 50.0 °F 100% 30.10 in 0.8 mi SSW 9.2 mph - N/A   Overcast
6:15 AM 50.0 °F 50.0 °F 100% 30.11 in 0.5 mi SSW 6.9 mph - N/A Fog Fog
6:35 AM 50.0 °F 50.0 °F 100% 30.11 in 0.5 mi SSW 5.8 mph - N/A Fog Fog
6:55 AM 50.0 °F 50.0 °F 100% 30.11 in 0.5 mi SSW 6.9 mph - N/A Rain Light Rain
7:15 AM 50.0 °F 50.0 °F 100% 30.12 in 0.5 mi SSW 6.9 mph - N/A   Drizzle
7:35 AM 50.0 °F 50.0 °F 100% 30.12 in 0.5 mi SSW 4.6 mph - 0.01 in   Drizzle
7:55 AM 50.0 °F 50.0 °F 100% 30.13 in 0.5 mi SSW 5.8 mph - 0.01 in Rain Light Rain
8:15 AM 50.0 °F 50.0 °F 100% 30.14 in 0.5 mi SSW 8.1 mph - N/A   Light Drizzle
8:35 AM 50.0 °F 50.0 °F 100% 30.14 in 0.5 mi SSW 9.2 mph - N/A   Light Drizzle
8:55 AM 50.0 °F 50.0 °F 100% 30.14 in 0.5 mi SSW 8.1 mph - N/A Fog Fog
9:15 AM 50.0 °F 50.0 °F 100% 30.15 in 0.5 mi SSW 9.2 mph - N/A Fog Fog
9:35 AM 50.0 °F 50.0 °F 100% 30.15 in 0.8 mi SSW 8.1 mph - N/A   Light Drizzle
9:55 AM 50.0 °F 50.0 °F 100% 30.15 in 0.8 mi SSW 9.2 mph - N/A   Overcast
10:15 AM 50.0 °F 50.0 °F 100% 30.16 in 1.5 mi SSW 10.4 mph - N/A   Overcast
10:35 AM 50.0 °F 50.0 °F 100% 30.17 in 1.0 mi SSW 6.9 mph - N/A   Overcast
10:55 AM 50.0 °F 50.0 °F 100% 30.18 in 1.5 mi SSW 8.1 mph - N/A   Overcast
11:15 AM 50.0 °F 50.0 °F 100% 30.18 in 1.0 mi SSW 9.2 mph - N/A   Overcast
11:35 AM 50.0 °F 50.0 °F 100% 30.19 in 0.5 mi SSW 6.9 mph - N/A Fog Fog
11:55 AM 50.0 °F 50.0 °F 100% 30.19 in 0.8 mi SSW 8.1 mph - N/A   Overcast
12:15 PM 50.0 °F 50.0 °F 100% 30.19 in 0.8 mi SSW 8.1 mph - N/A   Overcast
12:35 PM 50.0 °F 50.0 °F 100% 30.19 in 0.5 mi SW 6.9 mph - N/A Fog Fog
12:55 PM 50.0 °F 50.0 °F 100% 30.19 in 0.2 mi WSW 4.6 mph - N/A Fog Fog
1:15 PM 50.0 °F 50.0 °F 100% 30.19 in 0.2 mi WSW 5.8 mph - N/A Fog Fog
1:35 PM 50.0 °F 50.0 °F 100% 30.19 in 0.5 mi SSW 4.6 mph - N/A Fog Fog
1:55 PM 50.0 °F 50.0 °F 100% 30.20 in 0.5 mi SW 5.8 mph - N/A Fog Fog
2:15 PM 51.8 °F 51.8 °F 100% 30.20 in 0.5 mi SW 9.2 mph - N/A Fog Fog
2:35 PM 51.8 °F 51.8 °F 100% 30.20 in 0.5 mi SSW 10.4 mph - N/A Fog Fog
2:55 PM 51.8 °F 51.8 °F 100% 30.20 in 0.5 mi SSW 9.2 mph - N/A Fog Fog
3:15 PM 51.8 °F 50.0 °F 94% 30.20 in 1.0 mi SW 10.4 mph - N/A   Overcast
3:35 PM 50.0 °F 50.0 °F 100% 30.20 in 1.2 mi SSW 11.5 mph - N/A   Overcast
3:55 PM 50.0 °F 50.0 °F 100% 30.21 in 1.0 mi SSW 10.4 mph - N/A   Overcast
4:15 PM 50.0 °F 50.0 °F 100% 30.21 in 0.8 mi SSW 10.4 mph - N/A   Overcast
4:35 PM 50.0 °F 50.0 °F 100% 30.21 in 0.8 mi SSW 10.4 mph - N/A   Overcast
4:55 PM 50.0 °F 50.0 °F 100% 30.21 in 1.5 mi SSW 8.1 mph - N/A   Overcast
5:15 PM 50.0 °F 50.0 °F 100% 30.21 in 1.8 mi SSW 9.2 mph - N/A   Overcast
5:35 PM 50.0 °F 50.0 °F 100% 30.21 in 5.0 mi SSW 9.2 mph - N/A   Overcast
5:55 PM 50.0 °F 50.0 °F 100% 30.21 in 4.0 mi SSW 10.4 mph - N/A   Overcast
6:15 PM 50.0 °F 50.0 °F 100% 30.21 in 1.0 mi South 9.2 mph - N/A   Overcast
6:35 PM 50.0 °F 50.0 °F 100% 30.21 in 0.8 mi SSW 9.2 mph - N/A   Overcast
6:55 PM 50.0 °F 50.0 °F 100% 30.21 in 5.0 mi South 8.1 mph - N/A   Overcast
7:15 PM 50.0 °F 50.0 °F 100% 30.22 in 7.0 mi SSW 8.1 mph - N/A   Overcast
7:35 PM 50.0 °F 50.0 °F 100% 30.22 in 5.0 mi South 8.1 mph - N/A   Overcast
7:55 PM 50.0 °F 50.0 °F 100% 30.22 in 5.0 mi South 8.1 mph - N/A   Overcast
8:15 PM 50.0 °F 50.0 °F 100% 30.22 in 7.0 mi South 8.1 mph - N/A   Overcast
8:35 PM 50.0 °F 50.0 °F 100% 30.22 in 5.0 mi South 4.6 mph - N/A   Overcast
8:55 PM 50.0 °F 48.2 °F 94% 30.23 in 10.0 mi South 5.8 mph - N/A   Overcast
9:15 PM 50.0 °F 48.2 °F 94% 30.23 in 7.0 mi South 4.6 mph - N/A   Overcast
9:35 PM 50.0 °F 48.2 °F 94% 30.24 in 7.0 mi South 5.8 mph - N/A   Overcast
9:55 PM 50.0 °F 48.2 °F 94% 30.24 in 7.0 mi SSW 5.8 mph - N/A   Overcast
10:15 PM 50.0 °F 48.2 °F 94% 30.24 in 5.0 mi South 8.1 mph - N/A   Overcast
10:35 PM 48.2 °F 48.2 °F 100% 30.24 in 10.0 mi South 8.1 mph - N/A   Overcast
10:55 PM 48.2 °F 46.4 °F 93% 30.24 in 10.0 mi SSW 4.6 mph - N/A   Overcast
11:15 PM 48.2 °F 48.2 °F 100% 30.24 in 7.0 mi South 3.5 mph - N/A   Overcast
11:35 PM 48.2 °F 48.2 °F 100% 30.24 in 7.0 mi South 3.5 mph - N/A   Overcast
11:55 PM 48.2 °F 48.2 °F 100% 30.24 in 5.0 mi SSW 4.6 mph - N/A   Overcast